Time,TemperatureF,DewpointF,PressureIn,WindDirection,WindDirectionDegrees,WindSpeedMPH,WindSpeedGustMPH,Humidity,HourlyPrecipIn,Conditions,Clouds,dailyrainin,SoftwareType,DateUTC
2013-02-20 00:04:00,32.6,31.8,29.52,ESE,116,0.0,12.0,97,0.00,,,0.00,Wunderground v.1.15,2013-02-20 05:04:00,
2013-02-20 00:15:00,32.7,31.9,29.51,ESE,115,0.0,12.0,97,0.00,,,0.00,Wunderground v.1.15,2013-02-20 05:15:00,
2013-02-20 00:25:00,32.6,31.8,29.51,ESE,116,0.0,12.0,97,0.00,,,0.00,Wunderground v.1.15,2013-02-20 05:25:00,
2013-02-20 00:35:00,32.7,31.9,29.50,ESE,116,0.0,12.0,97,0.00,,,0.00,Wunderground v.1.15,2013-02-20 05:35:00,
2013-02-20 00:45:00,32.7,31.9,29.50,ESE,116,0.0,12.0,97,0.00,,,0.00,Wunderground v.1.15,2013-02-20 05:45:00,
2013-02-20 00:55:00,32.7,31.9,29.49,ESE,116,0.0,12.0,97,0.00,,,0.00,Wunderground v.1.15,2013-02-20 05:55:00,
2013-02-20 01:05:00,32.7,31.9,29.49,ESE,115,0.0,12.0,97,0.00,,,0.00,Wunderground v.1.15,2013-02-20 06:05:00,
2013-02-20 01:15:00,32.9,32.4,29.49,ESE,116,0.0,12.0,98,0.00,,,0.00,Wunderground v.1.15,2013-02-20 06:15:00,
2013-02-20 01:25:00,32.9,32.4,29.48,ESE,116,0.0,12.0,98,0.00,,,0.00,Wunderground v.1.15,2013-02-20 06:25:00,
2013-02-20 01:35:00,32.7,31.9,29.48,ESE,116,0.0,12.0,97,0.00,,,0.00,Wunderground v.1.15,2013-02-20 06:35:00,
2013-02-20 01:45:00,32.6,31.8,29.49,SE,146,0.0,12.0,97,0.00,,,0.00,Wunderground v.1.15,2013-02-20 06:45:00,
2013-02-20 01:55:00,32.5,31.7,29.48,SSE,147,0.0,12.0,97,0.00,,,0.00,Wunderground v.1.15,2013-02-20 06:55:00,
2013-02-20 02:05:00,32.5,32.0,29.48,SSE,147,0.0,12.0,98,0.00,,,0.00,Wunderground v.1.15,2013-02-20 07:05:00,
2013-02-20 02:14:00,32.5,32.0,29.49,SSW,207,0.0,12.0,98,0.00,,,0.00,Wunderground v.1.15,2013-02-20 07:14:00,
2013-02-20 02:25:00,32.1,31.3,29.50,West,259,1.0,12.0,97,0.00,,,0.00,Wunderground v.1.15,2013-02-20 07:25:00,
2013-02-20 02:35:00,31.9,31.1,29.50,West,263,1.0,12.0,97,0.00,,,0.00,Wunderground v.1.15,2013-02-20 07:35:00,
2013-02-20 02:45:00,31.4,30.6,29.50,West,270,1.0,1.0,97,0.00,,,0.00,Wunderground v.1.15,2013-02-20 07:45:00,
2013-02-20 02:55:00,31.2,30.4,29.50,West,264,1.0,12.0,97,0.00,,,0.00,Wunderground v.1.15,2013-02-20 07:55:00,
2013-02-20 03:05:00,31.0,30.2,29.50,West,264,1.0,12.0,97,0.00,,,0.00,Wunderground v.1.15,2013-02-20 08:05:00,
2013-02-20 03:15:00,30.6,29.9,29.51,West,264,0.0,12.0,97,0.00,,,0.00,Wunderground v.1.15,2013-02-20 08:15:00,
2013-02-20 03:25:00,30.4,29.7,29.51,SW,232,0.0,12.0,97,0.00,,,0.00,Wunderground v.1.15,2013-02-20 08:25:00,
2013-02-20 03:34:00,30.2,29.5,29.51,WSW,248,0.0,12.0,97,0.00,,,0.00,Wunderground v.1.15,2013-02-20 08:34:00,
2013-02-20 03:45:00,30.2,29.5,29.51,WSW,250,0.0,12.0,97,0.00,,,0.00,Wunderground v.1.15,2013-02-20 08:45:00,
2013-02-20 03:55:00,30.1,29.4,29.51,WSW,249,0.0,12.0,97,0.00,,,0.00,Wunderground v.1.15,2013-02-20 08:55:00,
2013-02-20 04:05:00,30.0,29.3,29.51,SW,228,0.0,12.0,97,0.00,,,0.00,Wunderground v.1.15,2013-02-20 09:05:00,
2013-02-20 04:15:00,30.0,29.3,29.52,NE,46,0.0,12.0,97,0.00,,,0.00,Wunderground v.1.15,2013-02-20 09:15:00,
2013-02-20 04:25:00,29.8,29.1,29.52,WNW,284,1.0,1.0,97,0.00,,,0.00,Wunderground v.1.15,2013-02-20 09:25:00,
2013-02-20 04:35:00,29.3,28.3,29.52,WSW,250,0.0,12.0,96,0.00,,,0.00,Wunderground v.1.15,2013-02-20 09:35:00,
2013-02-20 04:45:00,28.8,27.8,29.53,West,276,0.0,12.0,96,0.00,,,0.00,Wunderground v.1.15,2013-02-20 09:45:00,
2013-02-20 04:54:00,28.7,27.7,29.53,SSW,207,0.0,12.0,96,0.00,,,0.00,Wunderground v.1.15,2013-02-20 09:54:00,
2013-02-20 05:04:00,28.6,27.6,29.53,SSW,207,0.0,12.0,96,0.00,,,0.00,Wunderground v.1.15,2013-02-20 10:04:00,
2013-02-20 05:15:00,28.6,27.6,29.53,SSW,207,0.0,12.0,96,0.00,,,0.00,Wunderground v.1.15,2013-02-20 10:15:00,
2013-02-20 05:25:00,28.4,27.4,29.53,West,264,0.0,12.0,96,0.00,,,0.00,Wunderground v.1.15,2013-02-20 10:25:00,
2013-02-20 05:35:00,28.3,27.1,29.53,South,179,0.0,12.0,95,0.00,,,0.00,Wunderground v.1.15,2013-02-20 10:35:00,
2013-02-20 05:45:00,28.2,27.0,29.53,WNW,295,0.0,12.0,95,0.00,,,0.00,Wunderground v.1.15,2013-02-20 10:45:00,
2013-02-20 05:54:00,27.9,26.4,29.53,West,269,1.0,1.0,94,0.00,,,0.00,Wunderground v.1.15,2013-02-20 10:54:00,
2013-02-20 06:05:00,27.5,25.7,29.53,WNW,293,1.0,1.0,93,0.00,,,0.00,Wunderground v.1.15,2013-02-20 11:05:00,
2013-02-20 06:15:00,27.3,25.8,29.53,West,262,0.0,12.0,94,0.00,,,0.00,Wunderground v.1.15,2013-02-20 11:15:00,
2013-02-20 06:25:00,27.1,25.6,29.53,NE,37,0.0,12.0,94,0.00,,,0.00,Wunderground v.1.15,2013-02-20 11:25:00,
2013-02-20 06:34:00,26.9,25.4,29.53,West,263,0.0,12.0,94,0.00,,,0.00,Wunderground v.1.15,2013-02-20 11:34:00,
2013-02-20 06:45:00,26.9,25.1,29.53,WSW,255,0.0,12.0,93,0.00,,,0.00,Wunderground v.1.15,2013-02-20 11:45:00,
2013-02-20 06:55:00,26.8,25.0,29.53,ESE,110,0.0,12.0,93,0.00,,,0.00,Wunderground v.1.15,2013-02-20 11:55:00,
2013-02-20 07:05:00,26.8,25.0,29.53,SSW,212,0.0,12.0,93,0.00,,,0.00,Wunderground v.1.15,2013-02-20 12:05:00,
2013-02-20 07:15:00,26.7,24.4,29.53,SSW,210,0.0,12.0,91,0.00,,,0.00,Wunderground v.1.15,2013-02-20 12:15:00,
2013-02-20 07:25:00,26.8,25.0,29.54,SSW,210,0.0,12.0,93,0.00,,,0.00,Wunderground v.1.15,2013-02-20 12:25:00,
2013-02-20 07:35:00,26.7,24.7,29.54,WSW,245,0.0,12.0,92,0.00,,,0.00,Wunderground v.1.15,2013-02-20 12:35:00,
2013-02-20 07:45:00,26.8,24.8,29.54,SSW,198,0.0,12.0,92,0.00,,,0.00,Wunderground v.1.15,2013-02-20 12:45:00,
2013-02-20 07:54:00,26.9,24.9,29.54,NE,43,0.0,12.0,92,0.00,,,0.00,Wunderground v.1.15,2013-02-20 12:54:00,
2013-02-20 08:05:00,27.1,24.8,29.55,NE,43,0.0,12.0,91,0.00,,,0.00,Wunderground v.1.15,2013-02-20 13:05:00,
2013-02-20 08:15:00,27.1,25.1,29.55,WSW,242,0.0,12.0,92,0.00,,,0.00,Wunderground v.1.15,2013-02-20 13:15:00,
2013-02-20 08:25:00,27.2,24.7,29.54,SW,235,0.0,12.0,90,0.00,,,0.00,Wunderground v.1.15,2013-02-20 13:25:00,
2013-02-20 08:35:00,27.1,24.8,29.54,SW,215,0.0,12.0,91,0.00,,,0.00,Wunderground v.1.15,2013-02-20 13:35:00,
2013-02-20 08:45:00,27.4,25.1,29.54,South,187,0.0,12.0,91,0.00,,,0.00,Wunderground v.1.15,2013-02-20 13:45:00,
2013-02-20 08:54:00,27.8,25.2,29.54,South,187,0.0,12.0,90,0.00,,,0.00,Wunderground v.1.15,2013-02-20 13:54:00,
2013-02-20 09:04:00,27.9,24.8,29.54,SW,217,0.0,12.0,88,0.00,,,0.00,Wunderground v.1.15,2013-02-20 14:04:00,
2013-02-20 09:15:00,28.1,25.3,29.54,SW,220,0.0,12.0,89,0.00,,,0.00,Wunderground v.1.15,2013-02-20 14:15:00,
2013-02-20 09:25:00,28.0,24.9,29.54,WNW,302,0.0,12.0,88,0.00,,,0.00,Wunderground v.1.15,2013-02-20 14:25:00,
2013-02-20 09:35:00,28.0,24.1,29.55,West,281,1.0,1.0,85,0.00,,,0.00,Wunderground v.1.15,2013-02-20 14:35:00,
2013-02-20 09:45:00,28.2,24.6,29.54,WSW,249,1.0,1.0,86,0.00,,,0.00,Wunderground v.1.15,2013-02-20 14:45:00,
2013-02-20 09:54:00,28.1,24.5,29.55,WNW,297,2.0,12.0,86,0.00,,,0.00,Wunderground v.1.15,2013-02-20 14:54:00,
2013-02-20 10:05:00,28.2,24.3,29.54,West,262,2.0,2.0,85,0.00,,,0.00,Wunderground v.1.15,2013-02-20 15:05:00,
2013-02-20 10:15:00,28.2,24.6,29.54,WSW,254,1.0,12.0,86,0.00,,,0.00,Wunderground v.1.15,2013-02-20 15:15:00,
2013-02-20 10:25:00,28.3,24.1,29.53,West,262,1.0,12.0,84,0.00,,,0.00,Wunderground v.1.15,2013-02-20 15:25:00,
2013-02-20 10:35:00,28.1,23.3,29.53,WSW,245,2.0,12.0,82,0.00,,,0.00,Wunderground v.1.15,2013-02-20 15:35:00,
2013-02-20 10:45:00,28.1,23.3,29.54,WNW,294,2.0,2.0,82,0.00,,,0.00,Wunderground v.1.15,2013-02-20 15:45:00,
2013-02-20 10:55:00,28.1,23.9,29.54,WNW,285,2.0,2.0,84,0.00,,,0.00,Wunderground v.1.15,2013-02-20 15:55:00,
2013-02-20 11:05:00,27.4,22.9,29.54,WSW,256,2.0,12.0,83,0.00,,,0.00,Wunderground v.1.15,2013-02-20 16:05:00,
2013-02-20 11:14:00,27.4,23.2,29.55,West,276,2.0,2.0,84,0.00,,,0.00,Wunderground v.1.15,2013-02-20 16:14:00,
2013-02-20 11:25:00,27.2,22.7,29.54,WSW,240,2.0,2.0,83,0.00,,,0.00,Wunderground v.1.15,2013-02-20 16:25:00,
2013-02-20 11:35:00,27.9,24.0,29.54,West,278,2.0,2.0,85,0.00,,,0.00,Wunderground v.1.15,2013-02-20 16:35:00,
2013-02-20 11:45:00,28.0,22.0,29.54,West,271,2.0,12.0,78,0.00,,,0.00,Wunderground v.1.15,2013-02-20 16:45:00,
2013-02-20 11:55:00,27.5,21.8,29.54,WNW,284,2.0,2.0,79,0.00,,,0.00,Wunderground v.1.15,2013-02-20 16:55:00,
2013-02-20 12:04:00,28.1,22.4,29.54,WNW,293,1.0,12.0,79,0.00,,,0.00,Wunderground v.1.15,2013-02-20 17:04:00,
2013-02-20 12:15:00,28.7,23.0,29.53,WSW,257,1.0,12.0,79,0.00,,,0.00,Wunderground v.1.15,2013-02-20 17:15:00,
2013-02-20 12:25:00,28.6,22.3,29.53,WSW,253,1.0,12.0,77,0.00,,,0.00,Wunderground v.1.15,2013-02-20 17:25:00,
2013-02-20 12:35:00,28.6,21.0,29.53,SSW,200,3.0,3.0,73,0.00,,,0.00,Wunderground v.1.15,2013-02-20 17:35:00,
2013-02-20 12:45:00,28.2,21.0,29.53,West,276,2.0,2.0,74,0.00,,,0.00,Wunderground v.1.15,2013-02-20 17:45:00,
2013-02-20 12:55:00,28.5,21.3,29.53,ESE,113,1.0,12.0,74,0.00,,,0.00,Wunderground v.1.15,2013-02-20 17:55:00,
2013-02-20 13:05:00,28.4,20.5,29.53,West,260,2.0,2.0,72,0.00,,,0.00,Wunderground v.1.15,2013-02-20 18:05:00,
2013-02-20 13:15:00,28.4,20.2,29.53,WSW,257,2.0,12.0,71,0.00,,,0.00,Wunderground v.1.15,2013-02-20 18:15:00,
2013-02-20 13:25:00,28.2,21.0,29.53,SW,229,2.0,12.0,74,0.00,,,0.00,Wunderground v.1.15,2013-02-20 18:25:00,
2013-02-20 13:35:00,28.1,21.8,29.53,WSW,249,1.0,12.0,77,0.00,,,0.00,Wunderground v.1.15,2013-02-20 18:35:00,
2013-02-20 13:45:00,28.4,22.1,29.53,West,279,1.0,1.0,77,0.00,,,0.00,Wunderground v.1.15,2013-02-20 18:45:00,
2013-02-20 13:55:00,28.6,21.7,29.53,WSW,257,1.0,1.0,75,0.00,,,0.00,Wunderground v.1.15,2013-02-20 18:55:00,
2013-02-20 14:05:00,28.3,20.7,29.53,West,279,2.0,12.0,73,0.00,,,0.00,Wunderground v.1.15,2013-02-20 19:05:00,
2013-02-20 14:15:00,27.7,21.1,29.54,WSW,255,2.0,12.0,76,0.00,,,0.00,Wunderground v.1.15,2013-02-20 19:15:00,
2013-02-20 14:25:00,27.4,20.2,29.54,WSW,256,2.0,12.0,74,0.00,,,0.00,Wunderground v.1.15,2013-02-20 19:25:00,
2013-02-20 14:35:00,27.4,20.5,29.54,WSW,255,2.0,2.0,75,0.00,,,0.00,Wunderground v.1.15,2013-02-20 19:35:00,
2013-02-20 14:45:00,27.7,19.8,29.54,SW,228,2.0,12.0,72,0.00,,,0.00,Wunderground v.1.15,2013-02-20 19:45:00,
2013-02-20 14:55:00,27.7,20.8,29.54,West,263,2.0,2.0,75,0.00,,,0.00,Wunderground v.1.15,2013-02-20 19:55:00,
2013-02-20 15:05:00,27.7,19.8,29.54,West,280,2.0,12.0,72,0.00,,,0.00,Wunderground v.1.15,2013-02-20 20:05:00,
2013-02-20 15:15:00,27.8,18.3,29.55,WSW,248,1.0,1.0,67,0.00,,,0.00,Wunderground v.1.15,2013-02-20 20:15:00,
2013-02-20 15:25:00,27.9,19.4,29.55,West,280,1.0,12.0,70,0.00,,,0.00,Wunderground v.1.15,2013-02-20 20:25:00,
2013-02-20 15:35:00,27.7,18.8,29.55,SSW,212,1.0,12.0,69,0.00,,,0.00,Wunderground v.1.15,2013-02-20 20:35:00,
2013-02-20 15:45:00,27.6,18.1,29.55,WNW,295,2.0,2.0,67,0.00,,,0.00,Wunderground v.1.15,2013-02-20 20:45:00,
2013-02-20 15:55:00,27.4,19.2,29.56,West,270,1.0,12.0,71,0.00,,,0.00,Wunderground v.1.15,2013-02-20 20:55:00,
2013-02-20 16:05:00,27.2,18.4,29.56,WSW,243,2.0,2.0,69,0.00,,,0.00,Wunderground v.1.15,2013-02-20 21:05:00,
2013-02-20 16:15:00,27.0,17.5,29.57,NW,304,2.0,12.0,67,0.00,,,0.00,Wunderground v.1.15,2013-02-20 21:15:00,
2013-02-20 16:25:00,27.0,16.8,29.57,West,263,3.0,12.0,65,0.00,,,0.00,Wunderground v.1.15,2013-02-20 21:25:00,
2013-02-20 16:35:00,26.9,16.3,29.57,West,275,3.0,12.0,64,0.00,,,0.00,Wunderground v.1.15,2013-02-20 21:35:00,
2013-02-20 16:45:00,26.7,16.1,29.57,West,270,3.0,3.0,64,0.00,,,0.00,Wunderground v.1.15,2013-02-20 21:45:00,
2013-02-20 16:55:00,26.6,15.3,29.58,West,275,2.0,12.0,62,0.00,,,0.00,Wunderground v.1.15,2013-02-20 21:55:00,
2013-02-20 17:05:00,26.6,15.7,29.58,West,264,4.0,4.0,63,0.00,,,0.00,Wunderground v.1.15,2013-02-20 22:05:00,
2013-02-20 17:15:00,26.5,16.0,29.58,West,267,3.0,3.0,64,0.00,,,0.00,Wunderground v.1.15,2013-02-20 22:15:00,
2013-02-20 17:25:00,26.2,15.3,29.59,West,273,3.0,3.0,63,0.00,,,0.00,Wunderground v.1.15,2013-02-20 22:25:00,
2013-02-20 17:35:00,25.8,15.6,29.59,WNW,297,2.0,12.0,65,0.00,,,0.00,Wunderground v.1.15,2013-02-20 22:35:00,
2013-02-20 17:45:00,25.5,15.7,29.59,West,274,3.0,3.0,66,0.00,,,0.00,Wunderground v.1.15,2013-02-20 22:45:00,
2013-02-20 17:55:00,25.5,15.0,29.60,NW,305,3.0,12.0,64,0.00,,,0.00,Wunderground v.1.15,2013-02-20 22:55:00,
2013-02-20 18:05:00,25.3,16.2,29.60,WSW,252,4.0,4.0,68,0.00,,,0.00,Wunderground v.1.15,2013-02-20 23:05:00,
2013-02-20 18:15:00,25.0,15.6,29.61,West,273,2.0,12.0,67,0.00,,,0.00,Wunderground v.1.15,2013-02-20 23:15:00,
2013-02-20 18:25:00,24.9,15.5,29.61,West,262,3.0,3.0,67,0.00,,,0.00,Wunderground v.1.15,2013-02-20 23:25:00,
2013-02-20 18:35:00,24.8,15.0,29.61,NNW,330,3.0,3.0,66,0.00,,,0.00,Wunderground v.1.15,2013-02-20 23:35:00,
2013-02-20 18:45:00,24.5,15.1,29.62,SW,229,4.0,4.0,67,0.00,,,0.00,Wunderground v.1.15,2013-02-20 23:45:00,
2013-02-20 18:55:00,24.2,14.8,29.62,West,278,3.0,3.0,67,0.00,,,0.00,Wunderground v.1.15,2013-02-20 23:55:00,
2013-02-20 19:05:00,23.9,14.9,29.62,West,271,2.0,12.0,68,0.00,,,0.00,Wunderground v.1.15,2013-02-21 00:05:00,
2013-02-20 19:15:00,23.8,14.8,29.62,SW,226,2.0,12.0,68,0.00,,,0.00,Wunderground v.1.15,2013-02-21 00:15:00,
2013-02-20 19:25:00,23.5,15.5,29.62,NW,309,2.0,12.0,71,0.00,,,0.00,Wunderground v.1.15,2013-02-21 00:25:00,
2013-02-20 19:35:00,23.2,15.5,29.62,SW,235,2.0,2.0,72,0.00,,,0.00,Wunderground v.1.15,2013-02-21 00:35:00,
2013-02-20 19:45:00,23.2,15.5,29.62,SW,226,2.0,2.0,72,0.00,,,0.00,Wunderground v.1.15,2013-02-21 00:45:00,
2013-02-20 19:55:00,22.7,15.7,29.63,West,266,1.0,12.0,74,0.00,,,0.00,Wunderground v.1.15,2013-02-21 00:55:00,
2013-02-20 20:05:00,22.8,15.8,29.63,West,267,2.0,2.0,74,0.00,,,0.00,Wunderground v.1.15,2013-02-21 01:05:00,
2013-02-20 20:15:00,22.4,15.7,29.63,West,269,0.0,12.0,75,0.00,,,0.00,Wunderground v.1.15,2013-02-21 01:15:00,
2013-02-20 20:25:00,22.1,15.7,29.63,WSW,239,1.0,12.0,76,0.00,,,0.00,Wunderground v.1.15,2013-02-21 01:25:00,
2013-02-20 20:35:00,22.1,16.0,29.64,West,267,2.0,2.0,77,0.00,,,0.00,Wunderground v.1.15,2013-02-21 01:35:00,
2013-02-20 20:45:00,22.3,16.2,29.64,WNW,283,2.0,12.0,77,0.00,,,0.00,Wunderground v.1.15,2013-02-21 01:45:00,
2013-02-20 20:55:00,22.2,16.1,29.65,West,276,4.0,4.0,77,0.00,,,0.00,Wunderground v.1.15,2013-02-21 01:55:00,
2013-02-20 21:05:00,22.0,16.2,29.64,West,278,2.0,12.0,78,0.00,,,0.00,Wunderground v.1.15,2013-02-21 02:05:00,
2013-02-20 21:15:00,21.7,15.9,29.65,West,271,2.0,12.0,78,0.00,,,0.00,Wunderground v.1.15,2013-02-21 02:15:00,
2013-02-20 21:25:00,21.5,16.3,29.65,WNW,290,2.0,12.0,80,0.00,,,0.00,Wunderground v.1.15,2013-02-21 02:25:00,
2013-02-20 21:35:00,21.6,16.4,29.65,WNW,283,3.0,12.0,80,0.00,,,0.00,Wunderground v.1.15,2013-02-21 02:35:00,
2013-02-20 21:45:00,21.2,16.3,29.65,West,273,3.0,3.0,81,0.00,,,0.00,Wunderground v.1.15,2013-02-21 02:45:00,
2013-02-20 21:55:00,21.1,16.5,29.65,SSE,150,3.0,3.0,82,0.00,,,0.00,Wunderground v.1.15,2013-02-21 02:55:00,
2013-02-20 22:05:00,21.4,16.8,29.65,NW,312,3.0,12.0,82,0.00,,,0.00,Wunderground v.1.15,2013-02-21 03:05:00,
2013-02-20 22:15:00,21.5,16.9,29.66,West,269,3.0,12.0,82,0.00,,,0.00,Wunderground v.1.15,2013-02-21 03:15:00,
2013-02-20 22:25:00,21.4,17.0,29.66,WNW,302,2.0,12.0,83,0.00,,,0.00,Wunderground v.1.15,2013-02-21 03:25:00,
2013-02-20 22:35:00,21.3,16.9,29.66,WNW,283,1.0,12.0,83,0.00,,,0.00,Wunderground v.1.15,2013-02-21 03:35:00,
2013-02-20 22:45:00,21.4,17.3,29.66,West,260,2.0,12.0,84,0.00,,,0.00,Wunderground v.1.15,2013-02-21 03:45:00,
2013-02-20 22:55:00,21.3,17.2,29.67,West,275,1.0,12.0,84,0.00,,,0.00,Wunderground v.1.15,2013-02-21 03:55:00,
2013-02-20 23:05:00,21.2,17.4,29.67,West,260,2.0,12.0,85,0.00,,,0.00,Wunderground v.1.15,2013-02-21 04:05:00,
2013-02-20 23:15:00,21.4,17.6,29.67,West,280,2.0,2.0,85,0.00,,,0.00,Wunderground v.1.15,2013-02-21 04:15:00,
2013-02-20 23:25:00,21.5,17.7,29.68,West,266,2.0,2.0,85,0.00,,,0.00,Wunderground v.1.15,2013-02-21 04:25:00,
2013-02-20 23:35:00,21.3,17.8,29.68,West,274,1.0,12.0,86,0.00,,,0.00,Wunderground v.1.15,2013-02-21 04:35:00,
2013-02-20 23:45:00,21.3,17.8,29.68,WNW,285,2.0,12.0,86,0.00,,,0.00,Wunderground v.1.15,2013-02-21 04:45:00,
2013-02-20 23:55:00,21.4,17.9,29.68,WSW,243,2.0,12.0,86,0.00,,,0.00,Wunderground v.1.15,2013-02-21 04:55:00,